| time (UTC) | temp F | wind direction | speed MPH | gust MPH | rain 1hr in | rain 24hr in | rain mn in | humidity % | barometer mb |
| 20260502163719 | 43 | 268 | 3.0 | 6.0 | 0.00 | 0.00 | 0.00 | 44 | 1018.3 |
| 20260502163211 | 43 | 301 | 4.0 | 9.0 | 0.00 | 0.00 | 0.00 | 45 | 1018.2 |
| 20260502162708 | 42 | 287 | 7.0 | 10.0 | 0.00 | 0.00 | 0.00 | 44 | 1018.3 |
| 20260502162204 | 43 | 278 | 6.0 | 8.0 | 0.00 | 0.00 | 0.00 | 46 | 1018.4 |
| 20260502161702 | 43 | 302 | 4.0 | 8.0 | 0.00 | 0.00 | 0.00 | 44 | 1018.4 |
| 20260502161158 | 43 | 284 | 5.0 | 6.0 | 0.00 | 0.00 | 0.00 | 45 | 1018.4 |
| 20260502160656 | 43 | 332 | 2.0 | 9.0 | 0.00 | 0.00 | 0.00 | 46 | 1018.5 |
| 20260502160155 | 43 | 355 | 5.0 | 10.0 | 0.00 | 0.00 | 0.00 | 44 | 1018.5 |
| 20260502152109 | 41 | 4 | 4.0 | 6.0 | 0.00 | 0.00 | 0.00 | 49 | 1018.3 |
| 20260502151606 | 41 | 286 | 7.0 | 8.0 | 0.00 | 0.00 | 0.00 | 49 | 1018.4 |
| 20260502151103 | 41 | 352 | 5.0 | 11.0 | 0.00 | 0.00 | 0.00 | 49 | 1018.3 |
| 20260502150601 | 42 | 334 | 5.0 | 8.0 | 0.00 | 0.00 | 0.00 | 48 | 1018.3 |
| 20260502130445 | 39 | 305 | 4.0 | 4.0 | 0.00 | 0.00 | 0.00 | 64 | 1018.6 |
| 20260502123428 | 37 | 329 | 2.0 | 9.0 | 0.00 | 0.00 | 0.00 | 68 | 1018.3 |
| 20260502122925 | 37 | 332 | 4.0 | 4.0 | 0.00 | 0.00 | 0.00 | 70 | 1018.4 |
| 20260502122421 | 37 | 333 | 4.0 | 4.0 | 0.00 | 0.00 | 0.00 | 70 | 1018.4 |
| 20260502121920 | 37 | 343 | 6.0 | 8.0 | 0.00 | 0.00 | 0.00 | 69 | 1018.3 |
| 20260502121416 | 37 | 306 | 4.0 | 7.0 | 0.00 | 0.00 | 0.00 | 71 | 1018.3 |
| 20260502120914 | 37 | 299 | 3.0 | 8.0 | 0.00 | 0.00 | 0.00 | 71 | 1018.2 |
| 20260502120410 | 37 | 343 | 4.0 | 8.0 | 0.00 | 0.00 | 0.00 | 71 | 1018.3 |
| 20260502115907 | 36 | 7 | 2.0 | 6.0 | 0.00 | 0.00 | 0.00 | 72 | 1018.1 |
| 20260502115404 | 36 | 334 | 2.0 | 6.0 | 0.00 | 0.00 | 0.00 | 72 | 1018.4 |
| 20260502114900 | 36 | 343 | 2.0 | 6.0 | 0.00 | 0.00 | 0.00 | 72 | 1018.4 |
| 20260502114357 | 36 | 335 | 3.0 | 6.0 | 0.00 | 0.00 | 0.00 | 72 | 1018.2 |
| 20260502113854 | 36 | 359 | 4.0 | 6.0 | 0.00 | 0.00 | 0.00 | 72 | 1018.1 |
| 20260502113352 | 35 | 345 | 2.0 | 4.0 | 0.00 | 0.00 | 0.00 | 73 | 1018.1 |
| 20260502112850 | 35 | 358 | 0.0 | 3.0 | 0.00 | 0.00 | 0.00 | 74 | 1018.1 |
| 20260502112347 | 35 | 340 | 2.0 | 3.0 | 0.00 | 0.00 | 0.00 | 74 | 1018.1 |
| 20260502111845 | 35 | 350 | 2.0 | 4.0 | 0.00 | 0.00 | 0.00 | 74 | 1018.0 |
| 20260502111342 | 35 | 328 | 3.0 | 3.0 | 0.00 | 0.00 | 0.00 | 76 | 1017.8 |
| 20260502110840 | 34 | 347 | 2.0 | 4.0 | 0.00 | 0.00 | 0.00 | 74 | 1017.9 |
| 20260502110337 | 34 | 324 | 1.0 | 2.0 | 0.00 | 0.00 | 0.00 | 75 | 1018.1 |
| 20260502105834 | 34 | 346 | 0.0 | 1.0 | 0.00 | 0.00 | 0.00 | 75 | 1017.9 |
| 20260502105331 | 34 | 332 | 1.0 | 2.0 | 0.00 | 0.00 | 0.00 | 74 | 1017.9 |
| 20260502104824 | 34 | 345 | 1.0 | 2.0 | 0.00 | 0.00 | 0.00 | 75 | 1017.9 |
| 20260502104321 | 35 | 312 | 2.0 | 3.0 | 0.00 | 0.00 | 0.00 | 74 | 1017.9 |
| 20260502103818 | 35 | 336 | 3.0 | 3.0 | 0.00 | 0.00 | 0.00 | 73 | 1017.9 |
| 20260502103315 | 35 | 327 | 2.0 | 4.0 | 0.00 | 0.00 | 0.00 | 74 | 1017.9 |
| 20260502102813 | 35 | 348 | 2.0 | 4.0 | 0.00 | 0.00 | 0.00 | 73 | 1017.7 |
| 20260502102309 | 35 | 341 | 3.0 | 4.0 | 0.00 | 0.00 | 0.00 | 74 | 1017.8 |
| 20260502101807 | 35 | 324 | 3.0 | 4.0 | 0.00 | 0.00 | 0.00 | 75 | 1017.6 |
| 20260502101305 | 35 | 317 | 2.0 | 2.0 | 0.00 | 0.00 | 0.00 | 75 | 1017.7 |
| 20260502100803 | 35 | 339 | 2.0 | 3.0 | 0.00 | 0.00 | 0.00 | 76 | 1017.7 |
| 20260502100302 | 35 | 326 | 2.0 | 3.0 | 0.00 | 0.00 | 0.00 | 76 | 1017.6 |
| 20260502091235 | 37 | 323 | 1.0 | 2.0 | 0.00 | 0.00 | 0.00 | 71 | 1017.3 |
| 20260502090732 | 37 | 332 | 1.0 | 2.0 | 0.00 | 0.00 | 0.00 | 71 | 1017.3 |
| 20260502090229 | 37 | 316 | 2.0 | 2.0 | 0.00 | 0.00 | 0.00 | 70 | 1017.3 |
| 20260502071130 | 39 | 333 | 2.0 | 2.0 | 0.00 | 0.00 | 0.00 | 59 | 1016.8 |
| 20260502070628 | 39 | 8 | 0.0 | 1.0 | 0.00 | 0.00 | 0.00 | 59 | 1016.9 |
| 20260502070126 | 39 | 29 | 2.0 | 4.0 | 0.00 | 0.00 | 0.00 | 60 | 1016.9 |
| 20260502065624 | 39 | 353 | 1.0 | 3.0 | 0.00 | 0.00 | 0.00 | 59 | 1016.9 |
| 20260502065121 | 39 | 345 | 2.0 | 2.0 | 0.00 | 0.00 | 0.00 | 62 | 1017.1 |
| 20260502064620 | 39 | 13 | 0.0 | 0.0 | 0.00 | 0.00 | 0.00 | 62 | 1017.1 |
| 20260502064117 | 39 | 30 | 0.0 | 1.0 | 0.00 | 0.00 | 0.00 | 62 | 1017.0 |
| 20260502063615 | 39 | 22 | 0.0 | 0.0 | 0.00 | 0.00 | 0.00 | 61 | 1017.2 |
| 20260502063112 | 39 | 13 | 1.0 | 1.0 | 0.00 | 0.00 | 0.00 | 61 | 1017.1 |
| 20260502062609 | 40 | 18 | 0.0 | 2.0 | 0.00 | 0.00 | 0.00 | 61 | 1017.2 |
| 20260502062107 | 40 | 5 | 3.0 | 4.0 | 0.00 | 0.00 | 0.00 | 60 | 1017.3 |
| 20260502061605 | 40 | 339 | 2.0 | 2.0 | 0.00 | 0.00 | 0.00 | 58 | 1017.2 |
| 20260502061102 | 40 | 1 | 1.0 | 7.0 | 0.00 | 0.00 | 0.00 | 59 | 1017.2 |
| 20260502060602 | 40 | 332 | 2.0 | 3.0 | 0.00 | 0.00 | 0.00 | 60 | 1017.5 |
| 20260502060059 | 40 | 334 | 2.0 | 3.0 | 0.00 | 0.00 | 0.00 | 59 | 1017.4 |
| 20260502055556 | 40 | 353 | 1.0 | 2.0 | 0.00 | 0.00 | 0.00 | 60 | 1017.4 |
| 20260502055055 | 40 | 1 | 1.0 | 1.0 | 0.00 | 0.00 | 0.00 | 60 | 1017.4 |
| 20260502054553 | 40 | 14 | 1.0 | 2.0 | 0.00 | 0.00 | 0.00 | 58 | 1017.3 |
| 20260502054050 | 40 | 356 | 0.0 | 2.0 | 0.00 | 0.00 | 0.00 | 59 | 1017.3 |
| 20260502053547 | 40 | 356 | 0.0 | 1.0 | 0.00 | 0.00 | 0.00 | 60 | 1017.4 |
| 20260502053045 | 40 | 15 | 1.0 | 2.0 | 0.00 | 0.00 | 0.00 | 59 | 1017.4 |
| 20260502052543 | 40 | 314 | 2.0 | 2.0 | 0.00 | 0.00 | 0.00 | 60 | 1017.4 |
| 20260502052041 | 40 | 18 | 0.0 | 2.0 | 0.00 | 0.00 | 0.00 | 60 | 1017.5 |
| 20260502051539 | 40 | 353 | 2.0 | 3.0 | 0.00 | 0.00 | 0.00 | 59 | 1017.6 |
| 20260502051036 | 40 | 4 | 1.0 | 3.0 | 0.00 | 0.00 | 0.00 | 59 | 1017.4 |
| 20260502050532 | 40 | 329 | 4.0 | 4.0 | 0.00 | 0.00 | 0.00 | 60 | 1017.2 |
| 20260502050029 | 40 | 6 | 2.0 | 2.0 | 0.00 | 0.00 | 0.00 | 60 | 1017.2 |
| 20260502045525 | 40 | 333 | 4.0 | 8.0 | 0.00 | 0.00 | 0.00 | 60 | 1017.3 |
| 20260502045023 | 40 | 341 | 5.0 | 6.0 | 0.00 | 0.00 | 0.00 | 61 | 1017.3 |
| 20260502044519 | 40 | 357 | 1.0 | 4.0 | 0.00 | 0.00 | 0.00 | 61 | 1017.0 |
| 20260502044016 | 41 | 352 | 3.0 | 8.0 | 0.00 | 0.00 | 0.00 | 61 | 1017.2 |
| 20260502043514 | 41 | 318 | 5.0 | 6.0 | 0.00 | 0.00 | 0.00 | 62 | 1017.1 |
| 20260502043010 | 41 | 335 | 4.0 | 6.0 | 0.00 | 0.00 | 0.00 | 62 | 1016.9 |
| 20260502042505 | 41 | 323 | 3.0 | 3.0 | 0.00 | 0.00 | 0.00 | 63 | 1017.0 |
| 20260502042003 | 41 | 7 | 2.0 | 2.0 | 0.00 | 0.00 | 0.00 | 62 | 1017.0 |
| 20260502041500 | 41 | 354 | 2.0 | 4.0 | 0.00 | 0.00 | 0.00 | 62 | 1016.7 |
| 20260502040956 | 41 | 352 | 2.0 | 3.0 | 0.00 | 0.00 | 0.00 | 62 | 1016.8 |
| 20260502040453 | 41 | 355 | 1.0 | 2.0 | 0.00 | 0.00 | 0.00 | 63 | 1016.8 |
| 20260502035950 | 41 | 338 | 1.0 | 3.0 | 0.00 | 0.00 | 0.00 | 61 | 1016.9 |
| 20260502035446 | 41 | 8 | 3.0 | 4.0 | 0.00 | 0.00 | 0.00 | 60 | 1016.7 |
| 20260502034944 | 41 | 19 | 5.0 | 7.0 | 0.00 | 0.00 | 0.00 | 62 | 1016.6 |
| 20260502034442 | 41 | 11 | 2.0 | 2.0 | 0.00 | 0.00 | 0.00 | 65 | 1016.7 |
| 20260502033940 | 41 | 1 | 0.0 | 4.0 | 0.00 | 0.00 | 0.00 | 63 | 1016.9 |
| 20260502033437 | 41 | 336 | 3.0 | 4.0 | 0.00 | 0.00 | 0.00 | 63 | 1016.8 |
| 20260502032934 | 41 | 16 | 5.0 | 6.0 | 0.00 | 0.00 | 0.00 | 64 | 1016.8 |
| 20260502032431 | 41 | 356 | 3.0 | 4.0 | 0.00 | 0.00 | 0.00 | 64 | 1016.8 |
| 20260502031928 | 41 | 349 | 3.0 | 7.0 | 0.00 | 0.00 | 0.00 | 64 | 1016.8 |
| 20260502031426 | 41 | 21 | 4.0 | 8.0 | 0.00 | 0.00 | 0.00 | 64 | 1017.0 |
| 20260502030924 | 41 | 317 | 6.0 | 8.0 | 0.00 | 0.00 | 0.00 | 63 | 1016.7 |
| 20260502030422 | 41 | 4 | 4.0 | 8.0 | 0.00 | 0.00 | 0.00 | 64 | 1016.9 |
| 20260502025920 | 41 | 321 | 9.0 | 10.0 | 0.00 | 0.00 | 0.00 | 62 | 1016.8 |
| 20260502025416 | 42 | 308 | 6.0 | 9.0 | 0.00 | 0.00 | 0.00 | 62 | 1016.7 |
| 20260502024914 | 42 | 329 | 5.0 | 9.0 | 0.00 | 0.00 | 0.00 | 63 | 1016.6 |
| 20260502024412 | 42 | 311 | 4.0 | 7.0 | 0.00 | 0.00 | 0.00 | 62 | 1016.8 |
| 20260502023910 | 42 | 293 | 3.0 | 4.0 | 0.00 | 0.00 | 0.00 | 63 | 1016.5 |
| 20260502023407 | 42 | 323 | 3.0 | 4.0 | 0.00 | 0.00 | 0.00 | 64 | 1016.3 |
| 20260502022905 | 42 | 302 | 4.0 | 6.0 | 0.00 | 0.00 | 0.00 | 63 | 1016.6 |
| 20260502022401 | 42 | 280 | 3.0 | 3.0 | 0.00 | 0.00 | 0.00 | 64 | 1016.5 |
| 20260502021858 | 42 | 306 | 2.0 | 3.0 | 0.00 | 0.00 | 0.00 | 64 | 1016.6 |
| 20260502021355 | 42 | 307 | 2.0 | 2.0 | 0.00 | 0.00 | 0.00 | 65 | 1016.4 |
| 20260502020852 | 42 | 321 | 3.0 | 3.0 | 0.00 | 0.00 | 0.00 | 64 | 1016.5 |
| 20260502020350 | 42 | 298 | 2.0 | 4.0 | 0.00 | 0.00 | 0.00 | 63 | 1016.3 |
| 20260502015847 | 42 | 324 | 3.0 | 4.0 | 0.00 | 0.00 | 0.00 | 63 | 1016.4 |
| 20260502015344 | 42 | 298 | 3.0 | 3.0 | 0.00 | 0.00 | 0.00 | 64 | 1016.5 |
| 20260502014841 | 42 | 322 | 2.0 | 4.0 | 0.00 | 0.00 | 0.00 | 63 | 1016.2 |
| 20260502014338 | 42 | 294 | 4.0 | 4.0 | 0.00 | 0.00 | 0.00 | 63 | 1016.3 |
| 20260502013834 | 42 | 311 | 4.0 | 7.0 | 0.00 | 0.00 | 0.00 | 62 | 1016.3 |
| 20260502013330 | 42 | 350 | 2.0 | 4.0 | 0.00 | 0.00 | 0.00 | 64 | 1016.3 |
| 20260502012826 | 43 | 359 | 3.0 | 7.0 | 0.00 | 0.00 | 0.00 | 63 | 1016.3 |
| 20260502012325 | 43 | 290 | 5.0 | 7.0 | 0.00 | 0.00 | 0.00 | 62 | 1016.2 |
| 20260502011821 | 43 | 339 | 6.0 | 9.0 | 0.00 | 0.00 | 0.00 | 62 | 1016.1 |
| 20260502011318 | 43 | 294 | 4.0 | 7.0 | 0.00 | 0.00 | 0.00 | 62 | 1016.1 |
| 20260502010815 | 43 | 293 | 4.0 | 7.0 | 0.00 | 0.00 | 0.00 | 63 | 1015.9 |
| 20260502010311 | 43 | 358 | 2.0 | 3.0 | 0.00 | 0.00 | 0.00 | 62 | 1016.0 |
| 20260502005808 | 43 | 318 | 3.0 | 6.0 | 0.00 | 0.00 | 0.00 | 61 | 1015.9 |
| 20260502005306 | 43 | 319 | 4.0 | 7.0 | 0.00 | 0.00 | 0.00 | 60 | 1015.9 |
| 20260502004803 | 43 | 298 | 6.0 | 8.0 | 0.00 | 0.00 | 0.00 | 61 | 1015.9 |
| 20260502004259 | 43 | 301 | 4.0 | 4.0 | 0.00 | 0.00 | 0.00 | 61 | 1015.5 |
| 20260502003757 | 43 | 299 | 5.0 | 6.0 | 0.00 | 0.00 | 0.00 | 60 | 1015.8 |
| 20260502003254 | 43 | 290 | 3.0 | 3.0 | 0.00 | 0.00 | 0.00 | 61 | 1015.8 |
| 20260502002749 | 43 | 326 | 2.0 | 3.0 | 0.00 | 0.00 | 0.00 | 61 | 1015.8 |
| 20260502002247 | 43 | 321 | 3.0 | 3.0 | 0.00 | 0.00 | 0.00 | 60 | 1015.7 |
| 20260502001744 | 43 | 345 | 1.0 | 4.0 | 0.00 | 0.00 | 0.00 | 60 | 1015.8 |
| 20260502001243 | 43 | 295 | 2.0 | 3.0 | 0.00 | 0.00 | 0.00 | 61 | 1015.5 |
| 20260502000740 | 44 | 305 | 5.0 | 6.0 | 0.00 | 0.00 | 0.00 | 60 | 1015.8 |
| 20260502000240 | 44 | 324 | 5.0 | 6.0 | 0.00 | 0.00 | 0.00 | 59 | 1015.4 |
| 20260501235733 | 44 | 310 | 3.0 | 7.0 | 0.00 | 0.00 | 0.00 | 60 | 1015.4 |
| 20260501235229 | 44 | 311 | 4.0 | 7.0 | 0.00 | 0.00 | 0.00 | 59 | 1015.3 |
| 20260501234725 | 44 | 328 | 6.0 | 8.0 | 0.00 | 0.00 | 0.00 | 60 | 1015.8 |
| 20260501234222 | 44 | 319 | 5.0 | 6.0 | 0.00 | 0.00 | 0.00 | 60 | 1015.3 |
| 20260501233720 | 44 | 342 | 5.0 | 7.0 | 0.00 | 0.00 | 0.00 | 61 | 1015.3 |
| 20260501233218 | 44 | 330 | 3.0 | 6.0 | 0.00 | 0.00 | 0.00 | 60 | 1015.3 |
| 20260501232713 | 44 | 338 | 5.0 | 6.0 | 0.00 | 0.00 | 0.00 | 61 | 1015.7 |
| 20260501232211 | 44 | 293 | 5.0 | 9.0 | 0.00 | 0.00 | 0.00 | 60 | 1015.3 |
| 20260501231708 | 44 | 295 | 4.0 | 6.0 | 0.00 | 0.00 | 0.00 | 61 | 1015.3 |
| 20260501231206 | 44 | 314 | 4.0 | 7.0 | 0.00 | 0.00 | 0.00 | 60 | 1015.2 |
| 20260501230704 | 44 | 313 | 3.0 | 4.0 | 0.00 | 0.00 | 0.00 | 62 | 1015.3 |
| 20260501230202 | 44 | 319 | 2.0 | 4.0 | 0.00 | 0.00 | 0.00 | 61 | 1015.3 |
| 20260501225659 | 44 | 309 | 4.0 | 7.0 | 0.00 | 0.00 | 0.00 | 60 | 1015.5 |
| 20260501225156 | 44 | 295 | 6.0 | 8.0 | 0.00 | 0.00 | 0.00 | 61 | 1015.2 |
| 20260501224652 | 44 | 334 | 4.0 | 7.0 | 0.00 | 0.00 | 0.00 | 61 | 1015.4 |
| 20260501224150 | 44 | 266 | 5.0 | 8.0 | 0.00 | 0.00 | 0.00 | 60 | 1015.3 |
| 20260501223646 | 45 | 288 | 4.0 | 7.0 | 0.00 | 0.00 | 0.00 | 61 | 1015.5 |
| 20260501223143 | 45 | 297 | 7.0 | 8.0 | 0.00 | 0.00 | 0.00 | 61 | 1015.3 |
| 20260501222638 | 44 | 308 | 4.0 | 4.0 | 0.00 | 0.00 | 0.00 | 62 | 1015.4 |
| 20260501222136 | 44 | 314 | 4.0 | 7.0 | 0.00 | 0.00 | 0.00 | 62 | 1015.3 |
| 20260501221633 | 44 | 335 | 3.0 | 6.0 | 0.00 | 0.00 | 0.00 | 61 | 1015.2 |
| 20260501221130 | 44 | 311 | 4.0 | 8.0 | 0.00 | 0.00 | 0.00 | 60 | 1015.2 |
| 20260501220628 | 44 | 351 | 4.0 | 6.0 | 0.00 | 0.00 | 0.00 | 62 | 1015.3 |
| 20260501220125 | 44 | 329 | 4.0 | 7.0 | 0.00 | 0.00 | 0.00 | 61 | 1015.2 |
| 20260501215622 | 44 | 310 | 2.0 | 4.0 | 0.00 | 0.00 | 0.00 | 62 | 1015.4 |
| 20260501215117 | 45 | 324 | 4.0 | 10.0 | 0.00 | 0.00 | 0.00 | 61 | 1015.2 |
| 20260501214612 | 45 | 328 | 3.0 | 9.0 | 0.00 | 0.00 | 0.00 | 59 | 1015.0 |
| 20260501214108 | 45 | 294 | 3.0 | 7.0 | 0.00 | 0.00 | 0.00 | 57 | 1015.0 |
| 20260501213605 | 45 | 328 | 5.0 | 10.0 | 0.00 | 0.00 | 0.00 | 56 | 1015.0 |
| 20260501213101 | 46 | 300 | 9.0 | 10.0 | 0.00 | 0.00 | 0.00 | 56 | 1014.9 |
| 20260501212557 | 46 | 270 | 5.0 | 8.0 | 0.00 | 0.00 | 0.00 | 55 | 1014.9 |
| 20260501212054 | 46 | 335 | 4.0 | 6.0 | 0.00 | 0.00 | 0.00 | 57 | 1014.7 |
| 20260501211551 | 46 | 330 | 3.0 | 6.0 | 0.00 | 0.00 | 0.00 | 56 | 1014.8 |
| 20260501211049 | 46 | 307 | 4.0 | 9.0 | 0.00 | 0.00 | 0.00 | 56 | 1014.7 |
| 20260501210545 | 46 | 291 | 8.0 | 11.0 | 0.00 | 0.00 | 0.00 | 54 | 1014.6 |
| 20260501210042 | 46 | 318 | 4.0 | 7.0 | 0.00 | 0.00 | 0.00 | 54 | 1014.5 |
| 20260501205538 | 46 | 293 | 4.0 | 6.0 | 0.00 | 0.00 | 0.00 | 57 | 1014.5 |
| 20260501205036 | 47 | 314 | 6.0 | 9.0 | 0.00 | 0.00 | 0.00 | 52 | 1014.5 |
| 20260501204532 | 47 | 27 | 2.0 | 3.0 | 0.00 | 0.00 | 0.00 | 55 | 1014.4 |
| 20260501204028 | 46 | 336 | 3.0 | 7.0 | 0.00 | 0.00 | 0.00 | 55 | 1014.7 |
| 20260501203525 | 46 | 0 | 2.0 | 8.0 | 0.00 | 0.00 | 0.00 | 55 | 1014.5 |
| 20260501203023 | 47 | 332 | 5.0 | 7.0 | 0.00 | 0.00 | 0.00 | 55 | 1014.4 |
| 20260501202520 | 46 | 310 | 7.0 | 10.0 | 0.00 | 0.00 | 0.00 | 55 | 1014.6 |
| 20260501202016 | 46 | 269 | 8.0 | 10.0 | 0.00 | 0.00 | 0.00 | 54 | 1014.7 |
| 20260501201514 | 46 | 299 | 4.0 | 7.0 | 0.00 | 0.00 | 0.00 | 53 | 1014.6 |
| 20260501201010 | 46 | 312 | 4.0 | 4.0 | 0.00 | 0.00 | 0.00 | 55 | 1014.5 |
| 20260501200507 | 46 | 336 | 3.0 | 3.0 | 0.00 | 0.00 | 0.00 | 55 | 1014.5 |
| 20260501200005 | 46 | 345 | 1.0 | 6.0 | 0.00 | 0.00 | 0.00 | 55 | 1014.6 |
| 20260501195502 | 46 | 287 | 5.0 | 9.0 | 0.00 | 0.00 | 0.00 | 55 | 1014.8 |
| 20260501194957 | 47 | 16 | 5.0 | 11.0 | 0.00 | 0.00 | 0.00 | 55 | 1014.4 |
| 20260501194453 | 47 | 5 | 2.0 | 7.0 | 0.00 | 0.00 | 0.00 | 54 | 1014.5 |
| 20260501193949 | 47 | 334 | 2.0 | 3.0 | 0.00 | 0.00 | 0.00 | 54 | 1014.4 |
| 20260501193447 | 48 | 335 | 5.0 | 6.0 | 0.00 | 0.00 | 0.00 | 54 | 1014.3 |
| 20260501192944 | 48 | 326 | 4.0 | 8.0 | 0.00 | 0.00 | 0.00 | 54 | 1014.4 |
| 20260501192442 | 47 | 359 | 6.0 | 10.0 | 0.00 | 0.00 | 0.00 | 54 | 1014.3 |
| 20260501191939 | 47 | 322 | 7.0 | 9.0 | 0.00 | 0.00 | 0.00 | 54 | 1014.3 |
| 20260501191436 | 46 | 1 | 3.0 | 6.0 | 0.00 | 0.00 | 0.00 | 55 | 1014.3 |
| 20260501190933 | 46 | 325 | 4.0 | 6.0 | 0.00 | 0.00 | 0.00 | 54 | 1014.3 |
| 20260501190428 | 47 | 316 | 9.0 | 10.0 | 0.00 | 0.00 | 0.00 | 53 | 1014.3 |
| 20260501185923 | 47 | 291 | 6.0 | 8.0 | 0.00 | 0.00 | 0.00 | 54 | 1014.2 |
| 20260501185420 | 47 | 310 | 4.0 | 8.0 | 0.00 | 0.00 | 0.00 | 52 | 1014.1 |
| 20260501184916 | 47 | 317 | 4.0 | 7.0 | 0.00 | 0.00 | 0.00 | 51 | 1014.2 |
| 20260501184412 | 47 | 47 | 5.0 | 8.0 | 0.00 | 0.00 | 0.00 | 51 | 1014.0 |
| 20260501183907 | 47 | 323 | 1.0 | 4.0 | 0.00 | 0.00 | 0.00 | 55 | 1013.8 |
| 20260501183405 | 47 | 320 | 5.0 | 9.0 | 0.00 | 0.00 | 0.00 | 52 | 1014.2 |
| 20260501182901 | 47 | 334 | 2.0 | 10.0 | 0.00 | 0.00 | 0.00 | 53 | 1014.1 |
| 20260501182358 | 47 | 353 | 6.0 | 9.0 | 0.00 | 0.00 | 0.00 | 52 | 1014.1 |
| 20260501181855 | 47 | 351 | 1.0 | 4.0 | 0.00 | 0.00 | 0.00 | 50 | 1014.1 |
| 20260501181352 | 47 | 288 | 4.0 | 7.0 | 0.00 | 0.00 | 0.00 | 50 | 1014.0 |
| 20260501180849 | 48 | 277 | 8.0 | 9.0 | 0.00 | 0.00 | 0.00 | 50 | 1014.0 |
| 20260501180345 | 48 | 317 | 3.0 | 9.0 | 0.00 | 0.00 | 0.00 | 52 | 1013.9 |
| 20260501175843 | 47 | 331 | 7.0 | 10.0 | 0.00 | 0.00 | 0.00 | 51 | 1014.0 |
| 20260501175339 | 47 | 267 | 5.0 | 9.0 | 0.00 | 0.00 | 0.00 | 52 | 1013.9 |
| 20260501174836 | 47 | 319 | 4.0 | 6.0 | 0.00 | 0.00 | 0.00 | 51 | 1013.8 |
| 20260501174333 | 47 | 322 | 3.0 | 7.0 | 0.00 | 0.00 | 0.00 | 50 | 1013.9 |
| 20260501173831 | 48 | 77 | 6.0 | 8.0 | 0.00 | 0.00 | 0.00 | 51 | 1013.8 |
| 20260501173329 | 47 | 331 | 8.0 | 10.0 | 0.00 | 0.00 | 0.00 | 51 | 1013.8 |
| 20260501172824 | 47 | 315 | 4.0 | 9.0 | 0.00 | 0.00 | 0.00 | 52 | 1013.9 |
| 20260501172319 | 47 | 355 | 5.0 | 10.0 | 0.00 | 0.00 | 0.00 | 52 | 1013.9 |
| 20260501171815 | 47 | 13 | 3.0 | 7.0 | 0.00 | 0.00 | 0.00 | 53 | 1014.0 |
| 20260501171312 | 47 | 293 | 8.0 | 10.0 | 0.00 | 0.00 | 0.00 | 51 | 1013.9 |
| 20260501170809 | 47 | 314 | 5.0 | 9.0 | 0.00 | 0.00 | 0.00 | 54 | 1014.0 |
| 20260501170306 | 47 | 347 | 8.0 | 10.0 | 0.00 | 0.00 | 0.00 | 52 | 1013.9 |
| 20260501165803 | 48 | 295 | 4.0 | 6.0 | 0.00 | 0.00 | 0.00 | 51 | 1014.0 |
| 20260501165305 | 47 | 304 | 8.0 | 9.0 | 0.00 | 0.00 | 0.00 | 52 | 1013.9 |
| 20260501164758 | 47 | 301 | 5.0 | 7.0 | 0.00 | 0.00 | 0.00 | 53 | 1013.8 |
| 20260501164255 | 47 | 1 | 4.0 | 8.0 | 0.00 | 0.00 | 0.00 | 53 | 1014.0 |